This is the latest recevied weather packets stored in our database for station/object KK7ISX. If no packets are shown the sender has not sent any weather packets the latest 10 day(s).
| Time | Temp. | Humidity | Pressure | Rain* | Wind** | Luminosity | Snow |
|---|---|---|---|---|---|---|---|
| 1777598150 | 20° C | 37% | 1017.4 hPa | 0 mm | - | 94 W/m² | - |
| 1777597845 | 20.56° C | 36% | 1017.4 hPa | 0 mm | - | 95 W/m² | - |
| 1777597539 | 20° C | 35% | 1017.6 hPa | 0 mm | - | 125 W/m² | - |
| 1777597236 | 20.56° C | 35% | 1017.6 hPa | 0 mm | - | 136 W/m² | - |
| 1777596930 | 20.56° C | 35% | 1017.6 hPa | 0 mm | - | 143 W/m² | - |
| 1777596628 | 20.56° C | 35% | 1017.6 hPa | 0 mm | - | 158 W/m² | - |
| 1777596324 | 20.56° C | 34% | 1017.7 hPa | 0 mm | - | 167 W/m² | - |
| 1777596022 | 20.56° C | 34% | 1017.7 hPa | 0 mm | - | 176 W/m² | - |
| 1777595716 | 20.56° C | 35% | 1017.5 hPa | 0 mm | - | 188 W/m² | - |
| 1777595412 | 20.56° C | 34% | 1017.7 hPa | 0 mm | - | 199 W/m² | - |
| 1777595109 | 21.11° C | 35% | 1017.6 hPa | 0 mm | - | 207 W/m² | - |
| 1777594805 | 21.11° C | 33% | 1017.7 hPa | 0 mm | - | 207 W/m² | - |
| 1777594501 | 20.56° C | 34% | 1017.8 hPa | 0 mm | - | 233 W/m² | - |
| 1777594197 | 21.11° C | 33% | 1017.9 hPa | 0 mm | - | 251 W/m² | - |
| 1777593893 | 21.11° C | 34% | 1017.9 hPa | 0 mm | - | 261 W/m² | - |
| 1777593589 | 20.56° C | 34% | 1017.8 hPa | 0 mm | - | 272 W/m² | - |
| 1777593284 | 20.56° C | 33% | 1017.7 hPa | 0 mm | - | 285 W/m² | - |
| 1777592978 | 20.56° C | 33% | 1018.1 hPa | 0 mm | - | 298 W/m² | - |
| 1777592668 | 21.11° C | 33% | 1017.8 hPa | 0 mm | - | 312 W/m² | - |
| 1777592364 | 20.56° C | 34% | 1018.1 hPa | 0 mm | - | 326 W/m² | - |
| 1777592060 | 20.56° C | 33% | 1017.9 hPa | 0 mm | - | 339 W/m² | - |
| 1777591758 | 20.56° C | 36% | 1018.1 hPa | 0 mm | - | 355 W/m² | - |
| 1777591453 | 20.56° C | 34% | 1017.8 hPa | 0 mm | - | 365 W/m² | - |
| 1777591149 | 21.11° C | 33% | 1017.9 hPa | 0 mm | - | 379 W/m² | - |
| 1777590843 | 20.56° C | 34% | 1018.2 hPa | 0 mm | - | 395 W/m² | - |
* Rain latest hour (hover to see other rain measurements)
** Current wind speed in m/s (hover to see current wind gust speed)